QPF
0.00 0.00 0.00 0.00 0.00 0.00 0.00 0.00 0.00 0.00 0.00 0.00 0.00 0.00 0.00 0.00 0.01 0.04 0.06 0.02 0.01 0.02 0.02 0.01 0.00 0.00 0.00 0.00 0.00 0.00 0.00 0.00 0.00 0.00 0.00 0.00 0.00 0.00 0.00 0.00 0.00 0.00 0.00
0.00 0.00 0.00 0.00 0.00 0.00 0.00 0.00 0.00 0.00 0.00 0.00 0.00 0.00 0.00 0.00 0.01 0.04 0.03 0.02 0.02 0.02 0.04 0.03 0.01 0.00 0.00 0.00 0.00 0.00 0.00 0.00 0.00 0.00 0.00 0.00 0.00 0.00 0.00 0.00 0.00 0.00 0.00
0.00 0.00 0.00 0.00 0.00 0.00 0.00 0.00 0.00 0.00 0.00 0.00 0.00 0.00 0.00 0.00 0.01 0.02 0.00 0.00 0.01 0.01 0.03 0.02 0.01 0.00 0.00 0.00 0.00 0.00 0.00 0.00 0.00 0.00 0.00 0.00 0.00 0.00 0.00 0.00 0.00 0.00 0.00
0.00 0.00 0.00 0.00 0.00 0.00 0.00 0.00 0.00 0.00 0.00 0.00 0.00 0.00 0.00 0.00 0.00 0.00 0.00 0.00 0.00 0.00 0.00 0.00 0.00 0.00 0.00 0.00 0.00 0.00 0.00 0.00 0.00 0.00 0.00 0.00 0.00 0.00 0.00 0.00 0.00 0.00 0.00
0.00 0.00 0.00 0.00 0.00 0.00 0.00 0.00 0.00 0.00 0.00 0.00 0.00 0.00 0.00 0.00 0.00 0.00 0.00 0.00 0.00 0.00 0.00 0.00 0.00 0.00 0.00 0.00 0.00 0.00 0.00 0.00 0.00 0.00 0.00 0.00 0.00 0.00 0.00 0.00 0.00 0.00 0.00
0.00 0.00 0.00 0.00 0.00 0.00 0.00 0.00 0.00 0.00 0.00 0.00 0.00 0.00 0.00 0.00 0.00 0.00 0.00 0.00 0.00 0.00 0.00 0.00 0.00 0.00 0.00 0.00 0.00 0.00 0.00 0.00 0.00 0.00 0.00 0.00 0.00 0.00 0.00 0.00 0.00 0.00 0.00
0.00 0.00 0.00 0.00 0.00 0.00 0.00 0.00 0.00 0.00 0.00 0.00 0.00 0.00 0.00 0.00 0.00 0.00 0.00 0.00 0.00 0.00 0.00 0.00 0.00 0.00 0.00 0.00 0.00 0.00 0.00 0.00 0.00 0.00 0.00 0.00 0.00 0.00 0.00 0.00 0.00 0.00 0.00
0.00 0.00 0.00 0.00 0.00 0.00 0.00 0.00 0.00 0.00 0.00 0.00 0.00 0.00 0.00 0.00 0.00 0.00 0.00 0.00 0.00 0.00 0.00 0.00 0.00 0.00 0.00 0.00 0.00 0.00 0.00 0.00 0.00 0.00 0.00 0.00 0.00 0.00 0.00 0.00 0.00 0.00 0.00
0.00 0.00 0.00 0.00 0.00 0.00 0.00 0.00 0.00 0.00 0.00 0.00 0.00 0.00 0.00 0.00 0.00 0.00 0.00 0.00 0.00 0.00 0.00 0.00 0.00 0.00 0.00 0.00 0.00 0.00 0.00 0.00 0.00 0.00 0.00 0.00 0.00 0.00 0.00 0.00 0.00 0.00 0.00
0.00 0.00 0.00 0.00 0.00 0.00 0.00 0.00 0.00 0.00 0.00 0.00 0.00 0.00 0.00 0.00 0.00 0.00 0.00 0.00 0.00 0.00 0.00 0.00 0.00 0.00 0.00 0.00 0.00 0.00 0.00 0.00 0.00 0.00 0.00 0.00 0.00 0.00 0.00 0.00 0.00 0.00 0.00
0.00 0.00 0.00 0.00 0.00 0.00 0.00 0.00 0.00 0.00 0.00 0.00 0.00 0.00 0.00 0.00 0.00 0.00 0.00 0.00 0.00 0.00 0.00 0.00 0.00 0.00 0.00 0.00 0.00 0.00 0.00 0.00 0.00 0.00 0.00 0.00 0.00 0.00 0.00 0.00 0.00 0.00 0.00
0.00 0.00 0.00 0.00 0.00 0.00 0.00 0.00 0.00 0.00 0.00 0.00 0.00 0.00 0.00 0.00 0.00 0.00 0.00 0.00 0.00 0.00 0.00 0.00 0.00 0.00 0.00 0.00 0.00 0.00 0.00 0.00 0.00 0.00 0.00 0.00 0.00 0.00 0.00 0.00 0.00 0.00 0.00
0.00 0.00 0.00 0.00 0.00 0.00 0.00 0.00 0.00 0.00 0.00 0.00 0.00 0.00 0.00 0.00 0.00 0.00 0.00 0.00 0.00 0.00 0.00 0.00 0.00 0.00 0.00 0.00 0.00 0.00 0.00 0.00 0.00 0.00 0.00 0.00 0.00 0.00 0.00 0.00 0.00 0.00 0.00
0.00 0.00 0.00 0.00 0.00 0.00 0.00 0.00 0.00 0.00 0.00 0.00 0.00 0.00 0.00 0.00 0.00 0.00 0.00 0.00 0.00 0.00 0.00 0.00 0.00 0.00 0.00 0.00 0.00 0.00 0.00 0.00 0.00 0.00 0.00 0.00 0.00 0.00 0.00 0.00 0.00 0.00 0.00
0.00 0.00 0.00 0.00 0.00 0.00 0.00 0.00 0.00 0.00 0.00 0.00 0.00 0.00 0.00 0.00 0.00 0.00 0.00 0.00 0.00 0.00 0.00 0.00 0.00 0.00 0.00 0.00 0.00 0.00 0.00 0.00 0.00 0.00 0.00 0.00 0.00 0.00 0.00 0.00 0.00 0.00 0.00
0.00 0.00 0.00 0.00 0.00 0.00 0.00 0.00 0.00 0.00 0.00 0.00 0.00 0.00 0.00 0.00 0.00 0.00 0.00 0.00 0.00 0.00 0.00 0.00 0.00 0.00 0.00 0.00 0.00 0.00 0.00 0.00 0.00 0.00 0.00 0.00 0.00 0.00 0.00 0.00 0.00 0.00 0.00
0.00 0.00 0.00 0.00 0.00 0.00 0.00 0.00 0.00 0.00 0.00 0.00 0.00 0.00 0.00 0.00 0.00 0.00 0.00 0.00 0.00 0.00 0.00 0.00 0.00 0.00 0.00 0.00 0.00 0.00 0.00 0.00 0.00 0.00 0.00 0.00 0.00 0.00 0.00 0.00 0.00 0.00 0.00
0.00 0.00 0.00 0.00 0.00 0.00 0.00 0.00 0.00 0.00 0.00 0.00 0.00 0.00 0.00 0.00 0.00 0.00 0.00 0.00 0.00 0.00 0.00 0.00 0.00 0.00 0.00 0.00 0.00 0.00 0.00 0.00 0.00 0.00 0.00 0.00 0.00 0.00 0.00 0.00 0.00 0.00 0.00
0.00 0.00 0.00 0.00 0.00 0.00 0.00 0.00 0.00 0.00 0.00 0.00 0.00 0.00 0.00 0.00 0.00 0.00 0.00 0.00 0.00 0.00 0.00 0.00 0.00 0.00 0.00 0.00 0.00 0.00 0.00 0.00 0.00 0.00 0.00 0.00 0.00 0.00 0.00 0.00 0.00 0.00 0.00
0.00 0.00 0.00 0.00 0.00 0.00 0.00 0.00 0.00 0.00 0.00 0.00 0.00 0.00 0.00 0.00 0.00 0.00 0.00 0.00 0.00 0.00 0.00 0.00 0.00 0.00 0.00 0.00 0.00 0.00 0.00 0.00 0.00 0.00 0.00 0.00 0.00 0.00 0.00 0.00 0.00 0.00 0.00
0.00 0.00 0.00 0.00 0.00 0.00 0.00 0.00 0.00 0.00 0.00 0.00 0.00 0.00 0.00 0.00 0.00 0.00 0.00 0.00 0.00 0.00 0.00 0.00 0.00 0.00 0.00 0.00 0.00 0.00 0.00 0.00 0.00 0.00 0.00 0.00 0.00 0.00 0.00 0.00 0.00 0.00 0.00
0.00 0.00 0.00 0.00 0.00 0.00 0.00 0.00 0.00 0.00 0.00 0.00 0.00 0.00 0.00 0.00 0.00 0.00 0.00 0.00 0.00 0.00 0.00 0.00 0.00 0.00 0.00 0.00 0.00 0.00 0.00 0.00 0.00 0.00 0.00 0.00 0.00 0.00 0.00 0.00 0.00 0.00 0.00
0.00 0.00 0.00 0.00 0.00 0.00 0.00 0.00 0.00 0.00 0.00 0.00 0.00 0.00 0.00 0.00 0.00 0.00 0.00 0.00 0.00 0.00 0.00 0.00 0.00 0.00 0.00 0.00 0.00 0.00 0.00 0.00 0.00 0.00 0.00 0.00 0.00 0.00 0.00 0.00 0.00 0.00 0.00
0.00 0.00 0.00 0.00 0.00 0.00 0.00 0.00 0.00 0.00 0.00 0.00 0.00 0.00 0.00 0.00 0.00 0.00 0.00 0.00 0.00 0.00 0.00 0.00 0.00 0.00 0.00 0.00 0.00 0.00 0.00 0.00 0.00 0.00 0.00 0.00 0.00 0.00 0.00 0.00 0.00 0.00 0.00
0.00 0.00 0.00 0.00 0.00 0.00 0.00 0.00 0.00 0.00 0.00 0.00 0.00 0.00 0.00 0.00 0.00 0.00 0.00 0.00 0.00 0.00 0.00 0.00 0.00 0.00 0.00 0.00 0.00 0.00 0.00 0.00 0.00 0.00 0.00 0.00 0.00 0.00 0.00 0.00 0.00 0.00 0.00
0.00 0.00 0.00 0.00 0.00 0.00 0.00 0.00 0.00 0.00 0.00 0.00 0.00 0.00 0.00 0.00 0.00 0.00 0.00 0.00 0.00 0.00 0.00 0.00 0.00 0.00 0.00 0.00 0.00 0.00 0.00 0.00 0.00 0.00 0.00 0.00 0.00 0.00 0.00 0.00 0.00 0.00 0.00
MSLP
1011.22 1011.64 1011.91 1011.92 1012.11 1012.57 1012.97 1013.29 1013.48 1013.58 1013.81 1014.10 1014.14 1014.18 1014.29 1014.47 1014.65 1014.91 1015.38 1015.77 1016.23 1016.60 1016.99 1017.44 1017.95 1018.35 1018.80 1019.15 1019.64 1020.15 1020.65 1021.01 1021.51 1021.85 1022.08 1022.53 1022.84 1023.00 1023.44 1023.57 1023.53 1023.65 1023.59
1011.46 1011.95 1012.21 1012.37 1012.73 1013.09 1013.55 1013.74 1013.89 1013.91 1014.00 1014.18 1014.26 1014.27 1014.30 1014.42 1014.65 1014.83 1015.38 1015.75 1016.13 1016.43 1016.78 1017.30 1017.42 1018.31 1018.65 1018.92 1019.66 1020.34 1020.94 1021.45 1021.68 1022.37 1023.01 1023.45 1023.80 1024.00 1024.08 1024.19 1024.25 1024.25 1024.41
1011.86 1012.30 1012.57 1012.85 1013.11 1013.35 1013.72 1013.99 1014.10 1014.17 1014.34 1014.36 1014.33 1014.39 1014.42 1014.50 1014.61 1014.89 1015.46 1015.91 1016.36 1016.72 1017.03 1017.28 1017.65 1018.05 1018.63 1019.25 1019.96 1020.61 1021.00 1021.21 1021.83 1022.57 1023.47 1024.01 1024.25 1024.41 1024.54 1024.67 1024.67 1024.69 1024.68
1012.00 1012.41 1012.69 1013.12 1013.33 1013.67 1013.97 1014.16 1014.38 1014.42 1014.50 1014.50 1014.45 1014.37 1014.46 1014.64 1015.00 1015.43 1015.97 1016.47 1016.95 1017.35 1017.67 1017.97 1018.27 1018.61 1019.02 1019.64 1020.41 1020.91 1021.33 1021.98 1022.38 1022.93 1023.58 1024.01 1024.36 1024.65 1024.71 1024.84 1024.95 1024.89 1024.82
1012.16 1012.71 1013.18 1013.45 1013.64 1014.14 1014.23 1014.41 1014.67 1014.78 1014.83 1014.81 1014.66 1014.70 1014.81 1015.08 1015.44 1015.87 1016.50 1017.06 1017.60 1018.06 1018.24 1018.73 1018.95 1019.21 1019.50 1020.03 1020.61 1021.42 1021.84 1022.05 1022.57 1023.09 1023.71 1024.23 1024.59 1024.68 1024.63 1024.60 1024.66 1024.54 1024.54
1012.41 1013.15 1013.46 1013.76 1014.11 1014.50 1014.60 1014.81 1015.00 1015.14 1015.11 1015.17 1015.16 1015.24 1015.52 1015.82 1016.07 1016.49 1016.98 1017.64 1018.00 1018.58 1018.85 1019.42 1019.59 1019.89 1020.23 1020.70 1021.31 1021.72 1021.66 1021.94 1022.54 1023.13 1023.85 1024.42 1024.76 1024.79 1024.67 1024.72 1024.75 1024.66 1024.91
1012.71 1013.37 1013.69 1014.11 1014.46 1014.81 1014.94 1015.24 1015.51 1015.62 1015.68 1015.78 1015.81 1016.02 1016.31 1016.63 1016.94 1017.27 1017.63 1018.36 1018.91 1019.57 1020.00 1020.36 1020.63 1020.93 1021.00 1021.33 1021.59 1021.90 1022.12 1022.21 1022.50 1023.34 1024.44 1025.10 1025.29 1025.29 1025.01 1025.05 1025.09 1025.00 1025.33
1012.90 1013.43 1013.81 1014.27 1014.73 1015.18 1015.46 1015.73 1016.05 1016.09 1016.30 1016.58 1016.69 1016.93 1017.21 1017.64 1017.83 1018.17 1018.67 1019.32 1019.93 1020.41 1020.77 1021.03 1021.19 1021.47 1021.72 1022.07 1022.64 1023.20 1023.54 1023.77 1024.08 1024.32 1025.01 1025.45 1025.48 1025.46 1025.40 1025.34 1025.37 1025.35 1025.64
1012.90 1013.48 1013.86 1014.49 1015.07 1015.54 1015.95 1016.18 1016.47 1016.57 1016.97 1017.33 1017.61 1017.80 1018.10 1018.55 1018.68 1019.00 1019.31 1019.89 1020.59 1021.13 1021.64 1021.85 1022.02 1022.05 1022.13 1022.77 1023.40 1023.97 1024.37 1024.60 1024.63 1024.78 1024.98 1025.10 1025.16 1025.12 1025.23 1025.54 1025.91 1025.89 1026.29
1013.02 1013.62 1014.13 1014.81 1015.41 1015.90 1016.29 1016.57 1016.90 1017.16 1017.58 1017.96 1018.39 1018.70 1019.03 1019.27 1019.62 1019.72 1019.97 1020.58 1021.31 1022.04 1022.51 1022.73 1022.72 1022.93 1022.67 1023.05 1023.64 1024.20 1024.77 1025.14 1025.19 1025.37 1025.58 1025.49 1025.53 1025.50 1025.61 1026.11 1026.40 1026.61 1026.56
1013.21 1013.96 1014.56 1015.17 1015.74 1016.23 1016.56 1016.89 1017.28 1017.66 1018.11 1018.49 1019.06 1019.40 1019.67 1019.89 1020.14 1020.30 1020.61 1021.12 1021.83 1022.60 1023.24 1023.54 1023.58 1023.41 1023.59 1023.73 1024.06 1024.40 1024.81 1025.11 1025.37 1025.57 1025.78 1025.98 1026.23 1026.45 1026.51 1026.43 1026.39 1026.47 1026.55
1013.42 1014.23 1014.89 1015.38 1015.95 1016.54 1016.82 1017.22 1017.54 1017.83 1018.44 1019.13 1019.69 1020.12 1020.49 1020.51 1020.54 1020.68 1020.94 1021.46 1022.27 1022.94 1023.66 1023.99 1024.07 1024.02 1024.28 1024.56 1024.92 1024.91 1024.97 1025.36 1025.80 1026.06 1026.48 1026.92 1027.09 1027.13 1027.11 1026.91 1026.59 1026.52 1026.49
1013.71 1014.38 1015.06 1015.57 1016.10 1016.76 1017.10 1017.38 1017.76 1018.28 1018.76 1019.62 1020.25 1020.87 1021.39 1021.41 1021.37 1021.33 1021.64 1022.19 1022.82 1023.56 1024.09 1024.37 1024.69 1024.88 1025.06 1025.27 1025.28 1025.40 1025.91 1026.24 1026.41 1026.86 1027.36 1027.61 1027.63 1027.51 1027.17 1027.14 1026.97 1026.86 1026.64
1013.88 1014.43 1015.06 1015.53 1016.03 1016.82 1017.20 1017.49 1018.01 1018.59 1019.19 1019.83 1020.58 1021.25 1021.83 1022.19 1022.26 1022.48 1022.83 1023.43 1023.68 1024.18 1024.62 1025.13 1025.24 1025.45 1025.65 1025.97 1026.51 1026.67 1026.81 1026.83 1026.98 1027.58 1028.10 1028.18 1028.14 1027.94 1027.65 1027.49 1027.46 1027.34 1027.14
1013.97 1014.40 1014.95 1015.47 1015.91 1016.80 1017.54 1017.92 1018.44 1018.84 1019.33 1019.88 1020.58 1021.08 1021.55 1022.27 1022.70 1022.98 1023.26 1023.79 1024.28 1024.70 1025.28 1025.65 1025.85 1026.30 1026.59 1026.84 1027.13 1027.38 1027.54 1027.59 1027.81 1028.12 1028.37 1028.48 1028.40 1028.28 1028.14 1028.01 1027.91 1027.81 1027.77
1013.94 1014.46 1014.81 1015.54 1016.21 1017.18 1017.98 1018.78 1018.92 1019.02 1019.50 1020.11 1020.56 1020.89 1021.44 1021.85 1022.41 1022.88 1023.30 1023.88 1024.29 1024.61 1025.32 1026.03 1026.48 1026.88 1027.25 1027.53 1027.80 1027.98 1028.16 1028.30 1028.45 1028.59 1028.75 1028.76 1028.79 1028.82 1028.61 1028.53 1028.36 1028.22 1028.17
1013.58 1014.29 1014.86 1015.60 1016.36 1017.29 1018.29 1019.03 1019.93 1020.22 1020.12 1020.52 1020.89 1021.30 1021.70 1022.23 1022.93 1023.38 1023.83 1024.21 1024.55 1024.76 1025.59 1026.32 1026.84 1027.24 1027.56 1027.77 1028.07 1028.34 1028.73 1028.80 1028.91 1029.05 1029.14 1029.29 1029.32 1029.27 1029.19 1028.97 1028.83 1028.66 1028.56
1013.41 1014.06 1014.57 1015.43 1016.33 1017.25 1018.28 1019.18 1019.91 1020.49 1020.86 1021.39 1021.69 1021.90 1022.29 1022.78 1023.37 1023.86 1024.20 1024.49 1024.99 1025.39 1025.95 1026.58 1027.10 1027.46 1027.77 1028.06 1028.30 1028.56 1028.84 1029.07 1029.30 1029.47 1029.49 1029.50 1029.59 1029.56 1029.37 1029.31 1029.29 1029.10 1028.85
1013.23 1014.10 1014.49 1015.25 1016.22 1017.06 1018.17 1019.21 1019.98 1020.67 1021.13 1021.59 1022.18 1022.59 1022.89 1023.25 1023.76 1024.12 1024.23 1024.79 1025.50 1025.97 1026.34 1026.70 1027.13 1027.54 1027.90 1028.29 1028.59 1028.80 1029.00 1029.26 1029.44 1029.58 1029.74 1029.80 1029.78 1029.67 1029.60 1029.64 1029.62 1029.25 1028.91
1012.98 1013.65 1014.20 1015.12 1016.11 1016.95 1017.99 1018.97 1019.85 1020.58 1021.18 1021.66 1022.29 1022.77 1023.19 1023.62 1024.11 1024.49 1024.65 1024.99 1025.54 1026.04 1026.45 1026.80 1027.33 1027.74 1028.15 1028.50 1028.78 1028.99 1029.26 1029.44 1029.65 1029.79 1029.82 1029.90 1029.91 1029.81 1029.86 1029.76 1029.48 1029.19 1028.98
1012.74 1013.69 1014.17 1015.00 1015.85 1016.58 1017.54 1018.50 1019.37 1020.18 1020.94 1021.49 1022.03 1022.57 1023.04 1023.44 1023.98 1024.49 1024.81 1025.07 1025.48 1025.98 1026.39 1026.82 1027.37 1027.84 1028.13 1028.49 1028.90 1029.16 1029.45 1029.62 1029.74 1029.83 1029.99 1030.00 1030.00 1030.02 1029.85 1029.68 1029.54 1029.24 1029.09
1012.36 1013.29 1014.03 1014.73 1015.55 1016.41 1017.22 1018.08 1018.98 1019.77 1020.58 1021.16 1021.73 1022.42 1023.04 1023.44 1023.83 1024.34 1024.71 1025.04 1025.40 1025.80 1026.23 1026.71 1027.37 1027.84 1028.24 1028.52 1028.72 1029.05 1029.29 1029.50 1029.71 1029.95 1030.03 1030.04 1030.04 1029.99 1029.86 1029.74 1029.62 1029.50 1029.17
1011.96 1012.85 1013.70 1014.43 1015.25 1016.11 1016.98 1017.76 1018.62 1019.42 1020.20 1020.87 1021.30 1022.01 1022.73 1023.18 1023.51 1023.98 1024.53 1024.98 1025.33 1025.83 1026.22 1026.67 1027.29 1027.89 1028.16 1028.33 1028.40 1028.61 1028.98 1029.38 1029.55 1029.73 1030.04 1030.05 1030.05 1030.05 1030.00 1029.94 1029.77 1029.55 1029.28
1011.44 1012.28 1013.18 1013.96 1014.87 1015.78 1016.52 1017.37 1018.19 1019.01 1019.76 1020.45 1020.93 1021.57 1022.23 1022.71 1023.06 1023.65 1024.29 1024.79 1025.33 1025.85 1026.28 1026.74 1027.19 1027.70 1028.04 1028.23 1028.32 1028.52 1028.84 1029.13 1029.41 1029.61 1029.76 1029.93 1030.06 1030.10 1030.08 1030.04 1029.91 1029.61 1029.29
1010.96 1011.77 1012.60 1013.36 1014.29 1015.22 1016.14 1016.88 1017.69 1018.53 1019.27 1019.89 1020.55 1021.17 1021.79 1022.36 1022.75 1023.41 1024.09 1024.69 1025.31 1025.86 1026.34 1026.73 1027.09 1027.49 1027.78 1028.09 1028.48 1028.86 1029.03 1029.29 1029.63 1029.71 1029.82 1029.88 1029.99 1030.03 1030.14 1030.05 1029.80 1029.49 1029.25
1010.37 1011.20 1012.04 1012.88 1013.71 1014.55 1015.47 1016.27 1017.07 1017.93 1018.71 1019.39 1020.00 1020.68 1021.30 1021.92 1022.43 1023.12 1023.82 1024.52 1025.30 1025.89 1026.33 1026.67 1027.01 1027.44 1027.77 1028.22 1028.68 1029.03 1029.31 1029.55 1029.74 1029.77 1029.96 1030.01 1030.11 1030.16 1030.06 1029.85 1029.72 1029.63 1029.48
Thickness
5634 5632 5632 5633 5630 5625 5618 5613 5609 5606 5602 5598 5596 5594 5591 5589 5589 5592 5591 5591 5589 5587 5585 5583 5580 5577 5574 5571 5568 5565 5560 5558 5552 5551 5549 5545 5544 5542 5538 5536 5536 5533 5530
5626 5625 5625 5625 5621 5616 5610 5606 5603 5600 5598 5594 5591 5588 5584 5583 5585 5586 5587 5587 5587 5586 5584 5581 5581 5574 5572 5571 5566 5561 5557 5552 5551 5546 5537 5534 5531 5530 5528 5525 5522 5521 5519
5618 5617 5618 5616 5614 5611 5606 5601 5599 5597 5593 5591 5588 5583 5579 5579 5582 5584 5584 5583 5582 5580 5578 5578 5577 5574 5570 5566 5561 5556 5554 5551 5545 5539 5530 5526 5523 5520 5518 5514 5512 5510 5507
5613 5612 5613 5611 5609 5606 5602 5598 5595 5593 5591 5589 5587 5585 5581 5580 5579 5579 5578 5576 5575 5573 5570 5569 5568 5567 5564 5559 5553 5550 5545 5539 5537 5532 5525 5521 5517 5512 5510 5507 5503 5500 5497
5607 5606 5604 5604 5604 5599 5597 5594 5591 5589 5588 5586 5586 5585 5582 5580 5578 5577 5575 5572 5568 5565 5565 5562 5561 5560 5558 5553 5548 5541 5537 5535 5530 5526 5519 5514 5508 5505 5503 5499 5496 5493 5489
5600 5597 5599 5599 5597 5594 5592 5589 5588 5586 5585 5583 5584 5582 5579 5577 5576 5573 5570 5566 5564 5561 5558 5555 5555 5553 5549 5544 5539 5535 5535 5531 5526 5521 5514 5507 5499 5495 5491 5487 5482 5480 5476
5593 5592 5593 5593 5592 5589 5589 5585 5583 5581 5580 5578 5578 5576 5573 5571 5569 5567 5564 5560 5557 5552 5549 5547 5545 5542 5540 5537 5534 5531 5527 5524 5519 5510 5498 5488 5482 5478 5476 5471 5465 5462 5456
5587 5588 5590 5590 5588 5584 5583 5580 5577 5576 5575 5572 5572 5569 5567 5564 5563 5561 5558 5553 5549 5546 5543 5541 5539 5535 5532 5527 5521 5516 5511 5507 5502 5496 5487 5479 5474 5469 5463 5457 5452 5447 5440
5584 5584 5586 5584 5582 5579 5577 5576 5574 5573 5570 5567 5565 5563 5561 5558 5557 5555 5554 5550 5544 5540 5535 5532 5530 5527 5525 5519 5513 5506 5500 5496 5490 5484 5478 5472 5465 5459 5453 5448 5438 5431 5422
5579 5579 5579 5577 5576 5574 5572 5571 5569 5568 5565 5562 5559 5557 5555 5553 5551 5551 5549 5543 5537 5531 5526 5523 5521 5518 5518 5514 5507 5500 5491 5483 5478 5472 5466 5460 5455 5448 5440 5433 5425 5415 5408
5574 5572 5572 5571 5571 5569 5569 5566 5564 5564 5561 5559 5554 5552 5551 5549 5547 5545 5542 5537 5531 5524 5518 5514 5513 5512 5510 5506 5500 5491 5483 5478 5474 5467 5460 5453 5446 5437 5429 5422 5414 5406 5398
5568 5567 5566 5566 5566 5564 5565 5563 5561 5561 5558 5553 5549 5546 5544 5544 5543 5541 5537 5532 5525 5520 5514 5511 5510 5507 5502 5496 5490 5484 5479 5473 5466 5459 5451 5441 5433 5426 5420 5413 5405 5397 5388
5562 5562 5562 5562 5561 5559 5560 5560 5558 5556 5553 5548 5544 5539 5535 5535 5535 5534 5530 5525 5521 5516 5511 5508 5503 5498 5494 5488 5483 5478 5470 5464 5458 5449 5440 5431 5424 5417 5411 5403 5394 5386 5378
5558 5558 5560 5561 5560 5557 5558 5558 5555 5549 5546 5545 5541 5536 5531 5528 5526 5524 5521 5518 5515 5512 5507 5502 5498 5493 5487 5481 5473 5467 5461 5456 5448 5439 5429 5422 5416 5408 5402 5395 5385 5377 5368
5554 5556 5557 5560 5559 5557 5552 5552 5549 5546 5545 5541 5539 5537 5533 5525 5522 5521 5519 5516 5512 5509 5503 5498 5492 5485 5478 5472 5466 5459 5453 5447 5438 5431 5422 5415 5409 5402 5393 5386 5378 5369 5359
5551 5553 5557 5556 5554 5548 5543 5541 5544 5545 5544 5541 5539 5537 5533 5529 5525 5522 5520 5516 5512 5508 5500 5493 5486 5480 5472 5466 5460 5453 5446 5439 5431 5424 5416 5409 5401 5392 5386 5377 5369 5361 5350
5552 5552 5553 5553 5549 5544 5540 5538 5532 5534 5537 5537 5535 5533 5529 5526 5522 5520 5517 5514 5510 5506 5498 5490 5482 5476 5470 5463 5456 5448 5439 5432 5425 5417 5410 5401 5393 5385 5376 5369 5360 5352 5343
5550 5550 5553 5551 5546 5542 5539 5534 5531 5530 5529 5526 5528 5526 5524 5522 5519 5517 5514 5512 5506 5502 5495 5488 5480 5474 5467 5459 5452 5444 5435 5427 5419 5412 5404 5396 5387 5378 5371 5362 5352 5343 5335
5548 5546 5551 5550 5545 5542 5537 5533 5530 5528 5527 5525 5522 5520 5519 5519 5517 5515 5514 5510 5503 5498 5492 5486 5480 5472 5464 5456 5448 5440 5432 5423 5415 5408 5399 5391 5382 5374 5365 5354 5343 5336 5328
5546 5546 5548 5547 5544 5541 5537 5533 5530 5528 5526 5523 5520 5518 5517 5517 5514 5512 5512 5509 5503 5497 5491 5485 5478 5470 5461 5453 5445 5437 5428 5421 5412 5404 5396 5387 5378 5369 5358 5348 5338 5329 5319
5544 5544 5546 5545 5543 5542 5538 5535 5532 5530 5527 5524 5522 5520 5519 5518 5516 5513 5511 5509 5504 5498 5492 5486 5477 5468 5460 5452 5443 5435 5426 5418 5410 5402 5393 5383 5373 5363 5352 5342 5330 5321 5309
5544 5544 5544 5545 5543 5540 5538 5537 5534 5532 5528 5526 5524 5522 5520 5518 5517 5514 5512 5509 5505 5499 5493 5487 5477 5468 5460 5452 5444 5435 5426 5418 5410 5400 5390 5380 5370 5359 5348 5336 5323 5309 5296
5544 5545 5543 5544 5542 5540 5539 5538 5535 5532 5529 5527 5527 5525 5521 5519 5519 5517 5513 5509 5505 5499 5493 5486 5477 5468 5460 5452 5445 5438 5429 5419 5410 5399 5388 5377 5367 5355 5342 5328 5314 5300 5286
5545 5546 5545 5544 5542 5540 5541 5539 5537 5534 5532 5530 5529 5527 5524 5522 5522 5520 5515 5510 5504 5498 5492 5486 5479 5470 5461 5454 5446 5437 5429 5419 5408 5397 5387 5376 5365 5352 5338 5324 5310 5296 5281
5545 5546 5547 5545 5544 5542 5541 5541 5539 5536 5535 5534 5531 5529 5527 5525 5524 5521 5516 5510 5505 5499 5492 5486 5479 5471 5463 5454 5445 5436 5426 5416 5405 5396 5386 5375 5364 5351 5337 5324 5311 5299 5285
5545 5547 5547 5545 5545 5545 5544 5544 5541 5538 5537 5536 5535 5532 5530 5527 5526 5523 5518 5511 5505 5499 5493 5487 5479 5471 5462 5453 5443 5434 5424 5414 5405 5396 5386 5375 5364 5351 5339 5327 5315 5301 5287